SONATE-2
1 59112U 24043Q   26229.22805455  .00035598  00000-0  38894-3 0  9998
2 59112  97.5597  23.6111 0004653 340.1245  19.9831 15.63253101137417
GRBBeta
1 60237U 24128C   26229.40397303  .00002688  00000-0  19098-3 0  9999
2 60237  61.9916   1.4232 0032162 148.1007 212.2043 15.07008565115490
Curium One
1 60242U 24128H   26229.30649351  .00005639  00000-0  32408-3 0  9996
2 60242  61.9804 349.1676 0031330 143.3098 217.0152 15.13287656115704
ROBUSTA-3A
1 60243U 24128J   26229.37272391  .00005632  00000-0  33121-3 0  9996
2 60243  61.9884 351.7498 0033230 140.4676 219.8853 15.12405757115672
CatSat
1 60246U 24125J   26229.55226489  .00062858  00000-0  59698-3 0  9993
2 60246  97.2018  83.1935 0014775 313.2798  46.7229 15.66552236116978
HYPERVIEW-1G (RS66S)
1 61772U 24199AP  26229.31773273  .04014987  24027-5  12848-2 0  9990
2 61772  97.2507 113.3438 0006565 216.1019 143.9831 16.26267348144384
AO-123
1 61781U 24199AY  26229.59472793  .00005895  00000-0  16736-3 0  9998
2 61781  97.2904  97.7176 0015461  88.6287 271.6728 15.36461746143351
LASARsat
1 62391U 24247Q   26229.20691026  .00024863  00000-0  43775-3 0  9999
2 62391  44.9726 278.3554 0008769 359.9337   0.1552 15.50019681 92772
CroCube
1 62394U 24247T   26229.18313540  .00029212  00000-0  46934-3 0  9994
2 62394  44.9696 274.6746 0008876   8.3615 351.7423 15.52507167 92816
JINJUSat 1B
1 63210U 25052A   26228.66441027  .00011574  00000-0  34068-3 0  9998
2 63210  97.3911 125.5524 0002073 177.0799 183.0457 15.35222246 79376
NUSHSAT 1
1 63211U 25052B   26229.18717298  .00015246  00000-0  40746-3 0  9993
2 63211  97.3882 126.8729 0001730 167.7882 192.3405 15.38171247 79512
TEVEL2-4
1 63213U 25052D   26228.65243756  .00012639  00000-0  35629-3 0  9996
2 63213  97.3808 125.2047 0000782 174.1390 185.9863 15.36558290 79397
TEVEL2-5
1 63214U 25052E   26229.52707099  .00013607  00000-0  38563-3 0  9995
2 63214  97.3804 126.0116 0000763 169.9695 190.1565 15.36374011 79528
TEVEL2-6
1 63215U 25052F   26229.41054454  .00013133  00000-0  37275-3 0  9997
2 63215  97.3808 125.8794 0000654 167.4238 192.7023 15.36335782 79504
TEVEL2-1
1 63217U 25052H   26229.20167616  .00012520  00000-0  36247-3 0  9998
2 63217  97.3776 125.2182 0000237 260.6745  99.4472 15.35725894 79452
TEVEL2-3
1 63218U 25052J   26229.19381519  .00012469  00000-0  36021-3 0  9999
2 63218  97.3781 125.2412 0000020 164.1970 195.9274 15.35795614 79452
TEVEL2-2
1 63219U 25052K   26229.20154340  .00012747  00000-0  36883-3 0  9997
2 63219  97.3778 125.2216 0000251 260.7389  99.3826 15.35739210 79454
TEVEL2-9
1 63237U 25052AD  26229.19555084  .00011313  00000-0  35042-3 0  9999
2 63237  97.3840 124.4516 0003712 294.4584  65.6271 15.33607754 79370
TEVEL2-7
1 63238U 25052AE  26229.18382227  .00011160  00000-0  34942-3 0  9994
2 63238  97.3845 124.3279 0003752 294.4194  65.6656 15.33266970 79369
TEVEL2-8
1 63239U 25052AF  26229.19262992  .00011475  00000-0  35934-3 0  9993
2 63239  97.3845 124.3120 0003815 298.4942  61.5916 15.33255595 79365
SPIRONE
1 66657U 25274H   26228.74798847  .00001393  00000-0  13668-3 0  9997
2 66657  97.7467 157.1796 0012280 165.1162 195.0422 14.93752424 39267
K-HERO
1 66660U 25274L   26229.53968825  .00001180  00000-0  11549-3 0  9994
2 66660  97.7474 158.1657 0014090 167.8455 192.3108 14.94152601 39398
SNUGLITE-III DURI
1 66661U 25274M   26229.52632269  .00000686  00000-0  69294-4 0  9995
2 66661  97.7471 158.1735 0014647 169.3144 190.8390 14.94170094 39395
SAKHACUBE-CHOLBON
1 67290U 25313AU  26229.16717333  .00006550  00000-0  25828-3 0  9994
2 67290  97.3896 303.4706 0010454 134.9182 225.2906 15.25855049 35270
RS95S (QMR-KWT-2)
1 67291U 25313AV  26229.54873954  .00010209  00000-0  37908-3 0  9997
2 67291  97.3887 304.1707 0010084 131.7096 228.5008 15.27710143 35353
Ten-Koh2
1 68261U 25241B   26229.45045334  .00005599  00000-0  23772-3 0  9998
2 68261  51.6611  27.9003 0006057 343.7303  16.3480 15.24539365 24255
JACK-002
1 68417U 26067B   26229.59271676  .00004215  00000-0  19859-3 0  9998
2 68417  97.4619 187.4703 0004028  76.3019 283.8664 15.20045557 21277
DISCO 2
1 68431U 26067R   26228.83344856  .00005503  00000-0  25961-3 0  9993
2 68431  97.4651 186.7127 0003843 114.6153 245.5483 15.19869473 21150
HADES-SA (SpinnyONE)
1 68446U 26067AG  26228.85072518  .00011639  00000-0  52877-3 0  9997
2 68446  97.4444 186.3366 0004927 201.7740 158.3287 15.20913409 21144
PARUS-6U1
1 68456U 26067AS  26228.84064518  .00003671  00000-0  18348-3 0  9990
2 68456  97.4604 186.3120 0004651 192.8581 167.2535 15.18067081 21135
SAL-E
1 68458U 26067AU  26229.61274250  .00005017  00000-0  24627-3 0  9997
2 68458  97.4528 186.9812 0004570 200.1174 159.9881 15.18526648 21251
FSI-SAT 2
1 68792U 26088A   26229.37044014  .00002662  00000-0  18048-3 0  9990
2 68792  97.5146  17.1402 0012870 256.9173 103.0618 15.07238106 17507
OrigamiSat 2
1 68795U 26088D   26229.35230813  .00008587  00000-0  53216-3 0  9993
2 68795  97.5149  17.4713 0014092 224.2293 135.7811 15.09915772 17522
ARICA 2
1 68796U 26088E   26229.38076586  .00002621  00000-0  17022-3 0  9990
2 68796  97.5143  17.4182 0014500 224.7369 135.2691 15.08831475 17527
WASEDA-SAT-ZERO-II
1 68797U 26088F   26229.36411996  .00004622  00000-0  29395-3 0  9996
2 68797  97.5138  17.4359 0014399 224.2455 135.7623 15.09216901 17527
MANGARO-II-Piscus
1 68798U 26088G   26229.35339117  .00002605  00000-0  16758-3 0  9998
2 68798  97.5149  17.4662 0017790 228.3566 131.6140 15.09146763 17520
CO-128
1 69912U 26156AV  26229.55234838  .00000879  00000-0  94755-4 0  9994
2 69912  97.7513 129.2768 0003205  34.1708 325.9716 14.90875457  6143
MARINA
1 69920U 26156BD  26229.18488468  .00001283  00000-0  13179-3 0  9992
2 69920  97.7483 128.9741 0008285  29.7683 330.4005 14.92061703  6099
IO-86
1 40931U          26199.45381863  .00000000  00000-0  77536-4 0    07
2 40931   6.0006 322.6653 0012733 338.8432 273.6875 14.79294310    03
LILIUM-4                
1 71922C 26067AC  26089.50133053 -.00014632  00000+0 -74472-3 0    04
2 71922  97.4497  49.1617 0004341   5.9603 355.7042 15.16896692    16
